Location: *
(49.3500°N, 12.6000°E)
Time: 10:53:04
(UTC+00:00)

Cosmos 2084 - Pass Details

Date: 18 October 2019
Orbit: 555 x 628 km, 62.8° (Epoch: 14 November)

Event Time Altitude Azimuth Distance (km) Brightness Sun altitude
Rises 17:09:10 0° 227° (SW) 2,896 7.9 -9.7°
Reaches altitude 10° 17:11:28 10° 230° (SW) 1,987 7.0 -10.0°
Maximum altitude 17:15:58 73° 314° (NW) 646 3.8 -10.8°
Drops below altitude 10° 17:20:25 10° 41° (NE) 1,961 5.7 -11.5°
Enters shadow 17:21:08 - 42° (NE) 2,241 6.0 -11.6°
